Stations météo

réclame
Mon MeteoGroup
Dalwhinnie, Grande-Bretagne (99005): Température de l'air & dewpoint: 12.06.2018 14:00:00 - 18.06.2018 14:00:00 (BST)Dalwhinnie, Grande-Bretagne (99005): Quantités de précipitations: 12.06.2018 14:00:00 - 18.06.2018 14:00:00 (BST)
Date & Time tt [°C] td [°C] rr [mm]
18.06.2018 14:00:00 11,8 5,0 0,0
18.06.2018 13:00:00 13,2 6,1 0,0
18.06.2018 12:00:00 12,3 5,4 0,0
18.06.2018 11:00:00 12,4 4,9 0,0
18.06.2018 10:00:00 10,5 5,2 0,0
18.06.2018 09:00:00 10,1 5,4 0,0
18.06.2018 08:00:00 9,7 4,5 0,0
18.06.2018 07:00:00 9,2 5,1 0,0
18.06.2018 06:00:00 9,3 4,9 0,0
18.06.2018 05:00:00 9,2 4,7 0,0
18.06.2018 04:00:00 9,1 6,4 0,0
18.06.2018 03:00:00 9,9 5,5 0,0
18.06.2018 02:00:00 10,1 6,2 0,0
18.06.2018 01:00:00 10,8 7,5 0,0
18.06.2018 00:00:00 10,7 9,8 0,2
17.06.2018 23:00:00 11,0 10,2 0,0
17.06.2018 22:00:00 11,0 10,3 0,0
17.06.2018 21:00:00 11,2 10,0 0,0
17.06.2018 20:00:00 11,2 9,7 0,0
17.06.2018 19:00:00 10,7 9,3 0,0
17.06.2018 18:00:00 11,1 8,7 0,8
17.06.2018 17:00:00 12,0 8,8 0,0
17.06.2018 16:00:00 13,0 7,5 0,0
17.06.2018 15:00:00 13,1 7,9 0,0
17.06.2018 14:00:00 12,5 7,9 0,0
17.06.2018 13:00:00 12,2 8,1 0,0
17.06.2018 12:00:00 11,3 8,5 0,0
17.06.2018 11:00:00 10,0 7,7 0,0
17.06.2018 10:00:00 9,9 7,5 0,0
17.06.2018 09:00:00 9,5 6,5 0,0
17.06.2018 08:00:00 9,8 6,4 0,0
17.06.2018 07:00:00 6,1 5,2 0,0
17.06.2018 06:00:00 4,5 4,2 0,0
17.06.2018 05:00:00 2,3 1,7 0,0
17.06.2018 04:00:00 3,4 2,7 0,0
17.06.2018 03:00:00 4,6 3,5 0,0
17.06.2018 02:00:00 6,8 5,0 0,0
17.06.2018 01:00:00 8,5 5,6 0,0
17.06.2018 00:00:00 9,1 6,1 0,0
16.06.2018 23:00:00 9,1 6,9 0,0
16.06.2018 22:00:00 9,5 6,8 0,0
16.06.2018 21:00:00 9,7 6,9 0,0
16.06.2018 20:00:00 10,2 7,3 0,0
16.06.2018 19:00:00 10,1 8,7 0,6
16.06.2018 18:00:00 10,6 8,3 0,0
16.06.2018 17:00:00 10,2 7,3 0,0
16.06.2018 16:00:00 8,8 6,9 2,4
16.06.2018 15:00:00 10,3 8,1 1,2
16.06.2018 14:00:00 11,5 8,7 0,0
16.06.2018 13:00:00 10,6 7,8 1,0
16.06.2018 12:00:00 10,8 8,9 1,4
16.06.2018 11:00:00 10,3 8,0 1,0
16.06.2018 10:00:00 10,2 8,5 0,6
16.06.2018 09:00:00 10,1 8,0 0,0
16.06.2018 08:00:00 9,6 7,4 0,0
16.06.2018 07:00:00 9,1 7,1 0,0
16.06.2018 06:00:00 9,0 7,0 0,0
16.06.2018 05:00:00 8,5 6,6 0,0
16.06.2018 04:00:00 8,5 6,4 0,0
16.06.2018 03:00:00 8,6 6,3 0,0
16.06.2018 02:00:00 8,7 6,2 0,0
16.06.2018 01:00:00 8,7 6,5 0,0
16.06.2018 00:00:00 8,9 6,1 0,0
15.06.2018 23:00:00 8,5 6,2 0,0
15.06.2018 22:00:00 8,9 6,1 0,0
15.06.2018 21:00:00 10,1 6,1 0,0
15.06.2018 20:00:00 10,7 5,7 0,0
15.06.2018 19:00:00 11,7 5,5 0,0
15.06.2018 18:00:00 11,6 5,9 0,0
15.06.2018 17:00:00 12,8 6,6 0,0
15.06.2018 16:00:00 12,4 6,2 0,0
15.06.2018 15:00:00 11,6 6,8 0,0
15.06.2018 14:00:00 11,8 6,6 0,0
15.06.2018 13:00:00 10,8 6,4 0,0
15.06.2018 12:00:00 11,7 5,8 0,0
15.06.2018 11:00:00 11,5 6,0 0,0
15.06.2018 10:00:00 9,7 5,6 0,0
15.06.2018 09:00:00 10,0 6,2 0,2
15.06.2018 08:00:00 8,9 6,6 0,0
15.06.2018 07:00:00 8,2 5,6 0,0
15.06.2018 06:00:00 7,9 5,6 0,0
15.06.2018 05:00:00 7,8 5,8 0,2
15.06.2018 04:00:00 8,0 5,7 0,2
15.06.2018 03:00:00 7,7 6,4 0,2
15.06.2018 02:00:00 7,9 6,4 0,0
15.06.2018 01:00:00 7,8 5,1 0,0
15.06.2018 00:00:00 8,1 5,5 0,0
14.06.2018 23:00:00 7,7 5,6 0,0
14.06.2018 22:00:00 7,8 4,7 0,2
14.06.2018 21:00:00 8,8 4,0 0,0
14.06.2018 20:00:00 9,3 4,5 0,2
14.06.2018 19:00:00 9,6 4,5 0,0
14.06.2018 18:00:00 9,2 5,0 0,2
14.06.2018 17:00:00 9,5 5,8 0,8
14.06.2018 16:00:00 10,0 6,4 0,4
14.06.2018 15:00:00 9,8 6,6 0,6
14.06.2018 14:00:00 10,3 4,8 0,0
14.06.2018 13:00:00 10,4 7,1 0,0
14.06.2018 12:00:00 10,1 7,0 0,4
14.06.2018 11:00:00 10,4 8,4 0,8
14.06.2018 10:00:00 11,6 9,8 2,2
14.06.2018 09:00:00 11,6 10,2 0,0
14.06.2018 08:00:00 11,9 10,0 0,2
14.06.2018 07:00:00 12,4 9,5 0,0
14.06.2018 06:00:00 14,0 10,8 0,2
14.06.2018 05:00:00 14,1 11,0 0,2
14.06.2018 04:00:00 14,7 12,3 0,8
14.06.2018 03:00:00 13,1 12,1 0,8
14.06.2018 02:00:00 12,6 11,7 0,6
14.06.2018 01:00:00 12,2 11,0 0,4
14.06.2018 00:00:00 12,4 10,7 0,4
13.06.2018 23:00:00 11,8 10,5 0,4
13.06.2018 22:00:00 11,7 10,0 0,2
13.06.2018 21:00:00 11,3 9,9 0,2
13.06.2018 20:00:00 11,4 10,0 0,0
13.06.2018 19:00:00 11,4 9,6 0,0
13.06.2018 18:00:00 11,4 9,5 0,0
13.06.2018 17:00:00 11,6 10,1 0,0
13.06.2018 16:00:00 11,2 9,0 1,0
13.06.2018 15:00:00 10,8 8,7 0,6
13.06.2018 14:00:00 11,4 8,2 0,0
13.06.2018 13:00:00 11,5 6,8 0,0
13.06.2018 12:00:00 11,4 6,0 0,0
13.06.2018 11:00:00 11,5 4,9 0,0
13.06.2018 10:00:00 10,6 5,0 0,0
13.06.2018 09:00:00 10,5 6,2 0,0
13.06.2018 08:00:00 10,0 7,0 0,0
13.06.2018 07:00:00 9,9 7,3 0,0
13.06.2018 06:00:00 9,6 7,7 0,0
13.06.2018 05:00:00 9,2 7,8 0,0
13.06.2018 04:00:00 9,2 7,4 0,0
13.06.2018 03:00:00 9,0 6,0 0,0
13.06.2018 02:00:00 8,9 5,9 0,0
13.06.2018 01:00:00 8,9 5,4 0,0
13.06.2018 00:00:00 9,3 5,3 0,0
12.06.2018 23:00:00 9,5 6,1 0,0
12.06.2018 22:00:00 10,3 6,6 0,0
12.06.2018 21:00:00 12,3 6,9 0,0
12.06.2018 20:00:00 13,4 7,6 0,0
12.06.2018 19:00:00 14,2 8,0 0,0
12.06.2018 18:00:00 15,6 7,4 0,0
12.06.2018 17:00:00 15,8 7,1 0,0
12.06.2018 16:00:00 16,7 7,7 0,0
12.06.2018 15:00:00 15,7 7,6 0,0
12.06.2018 14:00:00 15,1 7,6 0,0

tt = Température de l'air
td = dewpoint
rr = Quantités de précipitations

stations d'obs. à proximité